{"data":{"norad_id":63690,"intl_designator":"2025-086D","name":"HULIANWANG DIGUI-23","alt_names":[],"object_type":"PAYLOAD","status":"ACTIVE","operator":null,"country":"PRC","launch_date":"2025-04-28","launch_site_code":"WSC","launch_vehicle":null,"mission":null,"orbit_class":"UNKNOWN","rcs_meters":null,"size_class":null,"mass_kg":null,"dimensions":null,"purposes":[],"wikipedia_slug":null,"has_3d_model":false,"image_url":null,"decayed_at":null,"tle_current":{"epoch":"2026-09-21T21:47:11.407488Z","epoch_age_seconds":86092,"freshness":"FRESH","line1":"1 63690U 25086D   26264.90777092 -.00000063  00000+0 -18024-3 0  9994","line2":"2 63690  86.5016 280.6829 0001754  78.7900 281.3431 13.24411610 67665","mean_motion":13.2441161,"eccentricity":0.0001754,"inclination_deg":86.5016,"raan_deg":280.6829,"arg_perigee_deg":78.79,"mean_anomaly_deg":281.3431,"bstar":-0.00018024,"rev_number":6766,"period_min":108.72752769058,"perigee_km":1166.5924924188,"apogee_km":1169.2396478358,"semimajor_km":7546.0530701273,"source":"CELESTRAK","updated_at":"2026-09-22T09:00:29.282301Z"}}}